When you browse on this site, cookies collect data to enhance your experience and personalize the content and advertising you see.
Visit our Privacy Policy to learn more. By continuing to use the site, you agree to this use of cookies and data.
  • In Switzerland
  • List of Countries
  • For 7 days
  • Water Temperature
  • Satellite Maps
  • Weather Map
  • Weather Widgets
  • user-avatar
    Login

    Hourly Weather Talas

    Today, 26 June, Wednesday

    Time Temperature Precipitation Wind Pressure Humidity
    00:00 +11°C° 0 mm 1 mps 596 mmHg 59%
    01:00 +11°C° 0 mm 1 mps 596 mmHg 58%
    02:00 +11°C° 0 mm 1 mps 596 mmHg 58%
    03:00 +11°C° 0 mm 1 mps 596 mmHg 57%
    04:00 +11°C° 0 mm 1 mps 595 mmHg 56%
    05:00 +11°C° 0 mm 1 mps 596 mmHg 56%
    06:00 +14°C° 0 mm 1 mps 597 mmHg 51%
    07:00 +16°C° 0 mm 1 mps 598 mmHg 46%
    08:00 +19°C° 0 mm 1 mps 599 mmHg 41%
    09:00 +19°C° 0 mm 2 mps 599 mmHg 39%
    10:00 +20°C° 0 mm 2 mps 599 mmHg 37%
    11:00 +21°C° 0 mm 2 mps 599 mmHg 35%
    12:00 +23°C° 0.1 mm 2 mps 599 mmHg 34%
    13:00 +23°C° 0.1 mm 2 mps 599 mmHg 34%
    14:00 +22°C° 0.1 mm 3 mps 599 mmHg 34%
    15:00 +23°C° 0.1 mm 2 mps 599 mmHg 35%
    16:00 +23°C° 0.1 mm 2 mps 598 mmHg 35%
    17:00 +23°C° 0.1 mm 2 mps 598 mmHg 35%
    18:00 +19°C° 0 mm 2 mps 597 mmHg 43%
    19:00 +18°C° 0 mm 1 mps 596 mmHg 50%
    20:00 +15°C° 0 mm 1 mps 595 mmHg 58%
    21:00 +14°C° 0 mm 1 mps 595 mmHg 56%
    22:00 +14°C° 0 mm 1 mps 595 mmHg 55%
    23:00 +13°C° 0 mm 1 mps 595 mmHg 54%

    Tomorrow, 27 June, Thursday

    Time Temperature Precipitation Wind Pressure Humidity
    00:00 +13°C° 0 mm 1 mps 594 mmHg 54%
    01:00 +13°C° 0 mm 2 mps 594 mmHg 55%
    02:00 +12°C° 0 mm 2 mps 594 mmHg 55%
    03:00 +12°C° 0 mm 2 mps 594 mmHg 56%
    04:00 +12°C° 0 mm 2 mps 593 mmHg 56%
    05:00 +12°C° 0 mm 1 mps 593 mmHg 57%
    06:00 +15°C° 0 mm 1 mps 594 mmHg 51%
    07:00 +18°C° 0 mm 1 mps 596 mmHg 45%
    08:00 +18°C° 0 mm 0 mps 597 mmHg 39%
    09:00 +21°C° 0.1 mm 1 mps 597 mmHg 38%
    10:00 +22°C° 0.1 mm 1 mps 597 mmHg 37%
    11:00 +23°C° 0.1 mm 2 mps 597 mmHg 36%
    12:00 +21°C° 0.6 mm 2 mps 597 mmHg 41%
    13:00 +21°C° 0.6 mm 2 mps 596 mmHg 45%
    14:00 +20°C° 0.6 mm 2 mps 596 mmHg 49%
    15:00 +19°C° 0.7 mm 3 mps 595 mmHg 53%
    16:00 +18°C° 0.7 mm 3 mps 595 mmHg 57%
    17:00 +17°C° 0.7 mm 3 mps 594 mmHg 61%
    18:00 +16°C° 0.2 mm 3 mps 594 mmHg 62%
    19:00 +16°C° 0.2 mm 3 mps 594 mmHg 64%
    20:00 +14°C° 0.2 mm 3 mps 594 mmHg 65%
    21:00 +13°C° 0 mm 3 mps 594 mmHg 64%
    22:00 +13°C° 0 mm 3 mps 594 mmHg 63%
    23:00 +13°C° 0 mm 3 mps 594 mmHg 62%

    Day after tomorrow, 28 June, Friday

    Time Temperature Precipitation Wind Pressure Humidity
    00:00 +13°C° 0 mm 3 mps 593 mmHg 60%
    01:00 +12°C° 0 mm 3 mps 593 mmHg 58%
    02:00 +12°C° 0 mm 3 mps 593 mmHg 57%
    03:00 +12°C° 0.3 mm 3 mps 593 mmHg 58%
    04:00 +12°C° 0.3 mm 3 mps 593 mmHg 60%
    05:00 +13°C° 0.3 mm 2 mps 593 mmHg 61%
    06:00 +15°C° 0 mm 2 mps 594 mmHg 56%
    07:00 +17°C° 0 mm 2 mps 595 mmHg 50%
    08:00 +19°C° 0 mm 2 mps 596 mmHg 44%
    09:00 +21°C° 0.2 mm 1 mps 596 mmHg 41%
    10:00 +22°C° 0.2 mm 1 mps 596 mmHg 38%
    11:00 +23°C° 0.2 mm 1 mps 597 mmHg 36%
    12:00 +23°C° 0.5 mm 1 mps 596 mmHg 37%
    13:00 +23°C° 0.5 mm 2 mps 596 mmHg 39%
    14:00 +23°C° 0.5 mm 2 mps 596 mmHg 41%
    15:00 +21°C° 0.6 mm 2 mps 596 mmHg 45%
    16:00 +20°C° 0.6 mm 2 mps 595 mmHg 48%
    17:00 +19°C° 0.6 mm 2 mps 595 mmHg 52%
    18:00 +19°C° 0.4 mm 1 mps 595 mmHg 59%
    19:00 +16°C° 0.4 mm 1 mps 594 mmHg 66%
    20:00 +15°C° 0.4 mm 1 mps 594 mmHg 73%
    21:00 +15°C° 0 mm 1 mps 594 mmHg 70%
    22:00 +14°C° 0 mm 2 mps 594 mmHg 67%
    23:00 +14°C° 0 mm 2 mps 594 mmHg 63%

    29 June, Saturday

    Time Temperature Precipitation Wind Pressure Humidity
    00:00 +14°C° 0 mm 2 mps 594 mmHg 63%
    01:00 +14°C° 0 mm 2 mps 594 mmHg 62%
    02:00 +14°C° 0 mm 2 mps 594 mmHg 61%
    03:00 +14°C° 0 mm 2 mps 594 mmHg 61%
    04:00 +14°C° 0 mm 2 mps 594 mmHg 61%
    05:00 +14°C° 0 mm 2 mps 594 mmHg 62%
    06:00 +16°C° 0 mm 2 mps 595 mmHg 56%
    07:00 +18°C° 0 mm 1 mps 595 mmHg 51%
    08:00 +18°C° 0 mm 0 mps 596 mmHg 46%
    09:00 +21°C° 0.1 mm 1 mps 596 mmHg 44%
    10:00 +22°C° 0.1 mm 1 mps 597 mmHg 43%
    11:00 +23°C° 0.1 mm 1 mps 597 mmHg 42%
    12:00 +23°C° 0.7 mm 2 mps 597 mmHg 41%
    13:00 +23°C° 0.7 mm 2 mps 596 mmHg 41%
    14:00 +24°C° 0.7 mm 3 mps 596 mmHg 40%
    15:00 +22°C° 0.2 mm 3 mps 596 mmHg 43%
    16:00 +22°C° 0.2 mm 3 mps 596 mmHg 45%
    17:00 +21°C° 0.2 mm 3 mps 596 mmHg 47%
    18:00 +19°C° 0.2 mm 2 mps 595 mmHg 53%
    19:00 +18°C° 0.2 mm 2 mps 595 mmHg 60%
    20:00 +16°C° 0.2 mm 1 mps 594 mmHg 66%
    21:00 +15°C° 0 mm 1 mps 594 mmHg 65%
    22:00 +15°C° 0 mm 1 mps 594 mmHg 64%
    23:00 +14°C° 0 mm 1 mps 594 mmHg 63%

    30 June, Sunday

    Time Temperature Precipitation Wind Pressure Humidity
    00:00 +14°C° 0 mm 2 mps 594 mmHg 62%
    01:00 +14°C° 0 mm 2 mps 593 mmHg 61%
    02:00 +14°C° 0 mm 2 mps 593 mmHg 59%
    03:00 +14°C° 0 mm 2 mps 593 mmHg 60%
    04:00 +14°C° 0 mm 2 mps 593 mmHg 60%
    05:00 +13°C° 0 mm 2 mps 593 mmHg 60%
    06:00 +16°C° 0 mm 1 mps 594 mmHg 55%
    07:00 +19°C° 0 mm 1 mps 595 mmHg 50%
    08:00 +22°C° 0 mm 1 mps 597 mmHg 45%
    09:00 +23°C° 0.2 mm 1 mps 597 mmHg 42%
    10:00 +24°C° 0.2 mm 1 mps 597 mmHg 40%
    11:00 +25°C° 0.2 mm 1 mps 597 mmHg 38%
    12:00 +25°C° 0.5 mm 2 mps 597 mmHg 38%
    13:00 +25°C° 0.5 mm 2 mps 597 mmHg 38%
    14:00 +25°C° 0.5 mm 3 mps 597 mmHg 39%
    15:00 +25°C° 0.4 mm 2 mps 596 mmHg 39%
    16:00 +25°C° 0.4 mm 2 mps 596 mmHg 39%
    17:00 +24°C° 0.4 mm 2 mps 596 mmHg 40%
    18:00 +21°C° 0 mm 2 mps 595 mmHg 46%
    19:00 +19°C° 0 mm 2 mps 595 mmHg 52%
    20:00 +18°C° 0 mm 1 mps 594 mmHg 58%
    21:00 +17°C° 0 mm 2 mps 594 mmHg 56%
    22:00 +16°C° 0 mm 2 mps 594 mmHg 55%
    23:00 +16°C° 0 mm 2 mps 594 mmHg 53%

    1 July, Monday

    Time Temperature Precipitation Wind Pressure Humidity
    00:00 +16°C° 0 mm 2 mps 594 mmHg 53%
    01:00 +15°C° 0 mm 2 mps 594 mmHg 54%
    02:00 +15°C° 0 mm 2 mps 593 mmHg 54%
    03:00 +15°C° 0 mm 2 mps 593 mmHg 55%
    04:00 +15°C° 0 mm 2 mps 593 mmHg 56%
    05:00 +15°C° 0 mm 2 mps 593 mmHg 57%
    06:00 +17°C° 0 mm 2 mps 594 mmHg 52%
    07:00 +20°C° 0 mm 2 mps 596 mmHg 47%
    08:00 +23°C° 0 mm 1 mps 597 mmHg 42%
    09:00 +24°C° 0 mm 1 mps 597 mmHg 40%
    10:00 +25°C° 0 mm 1 mps 597 mmHg 38%
    11:00 +26°C° 0 mm 1 mps 597 mmHg 36%
    12:00 +26°C° 0.3 mm 2 mps 597 mmHg 37%
    13:00 +26°C° 0.3 mm 2 mps 597 mmHg 38%
    14:00 +26°C° 0.3 mm 2 mps 597 mmHg 39%
    15:00 +25°C° 0.7 mm 2 mps 597 mmHg 42%
    16:00 +25°C° 0.7 mm 2 mps 596 mmHg 45%
    17:00 +24°C° 0.7 mm 2 mps 596 mmHg 47%
    18:00 +23°C° 0.4 mm 2 mps 596 mmHg 52%
    19:00 +20°C° 0.4 mm 2 mps 595 mmHg 56%
    20:00 +18°C° 0.4 mm 2 mps 595 mmHg 60%
    21:00 +18°C° 0 mm 2 mps 595 mmHg 59%
    22:00 +17°C° 0 mm 2 mps 595 mmHg 58%
    23:00 +17°C° 0 mm 2 mps 595 mmHg 57%
    Show more